EKRAN 2 DEB, 59987

Orbit data source: Space-Track

EKRAN 2 DEB, 59987 is space debris in GEO originally from a launch on Tue, 20 Sep 1977 UTC launched from the Tyuratam Missile And Space Complex (TTMTR). Debris objects in space refer to the collection of defunct objects orbiting the Earth. Examples of debris include non-operational satellites, rocket bodies, and fragments generated from explosions, collisions, or faulty payload assembly.

Not visible in the next 10 days
Identifier
59987, 1977-092N
Orbit
GEO
Country
Flag of CISCIS
Related business
Manufacturer
Unknown
Mission
Spacecraft
Bus & Motor
Unknown
Mass
Unknown
Launch date (UTC)
1977-09-20 (49 years ago)
Launch vehicle
Unknown
Launch site
Tyuratam Missile And Space Complex (TTMTR)
Object type
Payload
Rocket body
Debris
Shape & HBR
Unknown shape, 1.1 m
Radar Cross Section
RCS unknown

Expand to show TLE details & history
Last TLE update: 4 days ago

TLE from 4 days ago
0 EKRAN 2 DEB
1 59987U 77092N   26169.77140278 -.00000055  00000-0  00000-0 0  9994
2 59987   4.1208 273.8902 0013480 224.0789 120.6495  1.00156598 63128
Epoch: 2026-06-18T18:30Z
TLE epoch observation values (Epoch: 2026-06-18T18:30:49.200Z)
Latitude
-1.09838°
Longitude
74.07775°
Altitude
35,847.831 km
Speed
3.071 km/s
True Right ascension
17h 15m 10s
True Declination
-1° 05' 50"
Sunlit
Object was in daylight at epoch
Visualization orbit readout
Latitude
Unknown
Longitude
Unknown
Altitude
Unknown
Speed
Unknown
Apparent Right ascension
Unknown
Apparent Declination
Unknown
Sunlit
N/A
Visualization observer readout
Local Sidereal Time
21:39:56
Azimuth
Unknown
Elevation
Unknown
Doppler factor
Unknown
Orbital elements
Apogee altitude
35,876.862 km
Perigee altitude
35,763.095 km
Semi-major axis
42,198.116 km
Eccentricity
0.00135
Inclination
4.1208°
RAAN
273.8902°
Arg. of periapsis
224.0789°
True anomaly
120.78228°
Mean anomaly
120.6495°
Eccentric anomaly
120.7159°
Mean motion
0.25038 °/min
Orbital period
1,437.8 mins
BSTAR
0
Loading maneuver chart data...
Computing Atmospheric mass density...
Loading historical data...
Loading historical data...
Loading historical data...
Loading historical data...
Loading historical data...
Loading historical data...
Loading historical data...

Documentation

Showing up to 5 results
|